TimeEDT,TemperatureF,Dew PointF,Humidity,Sea Level PressureIn,VisibilityMPH,Wind Direction,Wind SpeedMPH,Gust SpeedMPH,PrecipitationIn,Events,Conditions,WindDirDegrees,DateUTC
12:00 AM,17.6,-9999,N/A,30.36,0.1,WNW,9.2,-,N/A,,Clear,300,2013-05-27 04:00:00
12:07 AM,17.6,-9999,N/A,30.20,0.5,WNW,8.1,-,N/A,,Clear,300,2013-05-27 04:07:00
12:09 AM,17.6,-9999,N/A,30.20,1.0,NW,8.1,-,N/A,,Clear,310,2013-05-27 04:09:00
12:13 AM,17.6,-9999,N/A,30.21,0.6,NW,9.2,-,N/A,,Clear,320,2013-05-27 04:13:00
12:15 AM,17.6,-9999,N/A,30.20,0.4,NNW,8.1,-,N/A,,Clear,330,2013-05-27 04:15:00
12:17 AM,17.6,-9999,N/A,30.20,0.1,NNW,9.2,-,N/A,,Clear,330,2013-05-27 04:17:00
12:35 AM,17.6,-9999,N/A,30.20,0.1,NNW,8.1,-,N/A,,Clear,330,2013-05-27 04:35:00
12:41 AM,17.6,-9999,N/A,30.20,0.1,NW,6.9,-,N/A,,Clear,320,2013-05-27 04:41:00
1:00 AM,17.6,-9999,N/A,30.37,0.1,NNW,8.1,-,N/A,,Clear,330,2013-05-27 05:00:00
1:18 AM,17.6,-9999,N/A,30.20,0.1,NNW,6.9,-,N/A,,Clear,330,2013-05-27 05:18:00
1:49 AM,17.6,-9999,N/A,30.19,0.6,NNW,6.9,-,N/A,,Clear,330,2013-05-27 05:49:00
1:54 AM,17.6,-9999,N/A,30.19,1.0,NNW,4.6,-,N/A,,Clear,340,2013-05-27 05:54:00
2:00 AM,17,,,30.35,1,NNW,5.8,,,,,330,2013-05-27 06:00:00
2:00 AM,17.6,-9999,N/A,30.35,1.2,NNW,4.6,-,N/A,,Clear,330,2013-05-27 06:00:00
2:02 AM,17.6,-9999,N/A,30.19,0.4,North,-9999.0,-,N/A,,Clear,0,2013-05-27 06:02:00
2:14 AM,17.6,-9999,N/A,30.20,1.0,NW,3.5,-,N/A,,Clear,310,2013-05-27 06:14:00
2:15 AM,17.6,-9999,N/A,30.20,1.0,NW,3.5,-,N/A,,Clear,310,2013-05-27 06:15:00
2:18 AM,17.6,-9999,N/A,30.20,0.6,NW,4.6,-,N/A,,Clear,320,2013-05-27 06:18:00
2:19 AM,17.6,-9999,N/A,30.20,0.4,NW,4.6,-,N/A,,Clear,310,2013-05-27 06:19:00
2:33 AM,17.6,-9999,N/A,30.20,0.1,WNW,6.9,-,N/A,,Clear,290,2013-05-27 06:33:00
3:00 AM,17.6,-9999,N/A,30.36,0.1,WNW,6.9,-,N/A,,Clear,300,2013-05-27 07:00:00
3:21 AM,17.6,-9999,N/A,30.21,0.1,WNW,4.6,-,N/A,,Clear,300,2013-05-27 07:21:00
3:47 AM,15.8,-9999,N/A,30.20,0.6,WNW,3.5,-,N/A,,Clear,300,2013-05-27 07:47:00
3:49 AM,15.8,-9999,N/A,30.20,1.5,NW,4.6,-,N/A,,Clear,320,2013-05-27 07:49:00
3:51 AM,15.8,-9999,N/A,30.20,1.2,NNW,5.8,-,N/A,,Clear,330,2013-05-27 07:51:00
3:52 AM,17.6,-9999,N/A,30.19,0.8,NNW,5.8,-,N/A,,Clear,330,2013-05-27 07:52:00
3:53 AM,17.6,-9999,N/A,30.20,0.5,NNW,5.8,-,N/A,,Clear,330,2013-05-27 07:53:00
3:54 AM,17.6,-9999,N/A,30.20,0.4,NW,4.6,-,N/A,,Clear,320,2013-05-27 07:54:00
4:00 AM,15.8,-9999,N/A,30.36,0.2,NW,5.8,-,N/A,,Clear,320,2013-05-27 08:00:00
4:07 AM,15.8,-9999,N/A,30.19,0.6,WNW,3.5,-,N/A,,Overcast,290,2013-05-27 08:07:00
4:09 AM,15.8,-9999,N/A,30.20,0.4,NW,6.9,-,N/A,,Clear,310,2013-05-27 08:09:00
4:19 AM,15.8,-9999,N/A,30.20,1.0,West,4.6,-,N/A,,Clear,280,2013-05-27 08:19:00
4:24 AM,15.8,-9999,N/A,30.20,1.5,West,4.6,-,N/A,,Clear,270,2013-05-27 08:24:00
4:37 AM,15.8,-9999,N/A,30.20,2.6,West,4.6,-,N/A,,Clear,270,2013-05-27 08:37:00
4:49 AM,15.8,-9999,N/A,30.20,1.0,NNW,6.9,-,N/A,,Clear,330,2013-05-27 08:49:00
4:50 AM,15.8,-9999,N/A,30.20,0.6,NNW,6.9,-,N/A,,Clear,330,2013-05-27 08:50:00
4:55 AM,15.8,-9999,N/A,30.20,0.4,NNW,4.6,-,N/A,,Clear,340,2013-05-27 08:55:00
4:58 AM,15.8,-9999,N/A,30.20,0.4,NNW,4.6,-,N/A,,Clear,330,2013-05-27 08:58:00
4:59 AM,15.8,-9999,N/A,30.21,0.5,NW,5.8,-,N/A,,Clear,320,2013-05-27 08:59:00
5:00 AM,16,,,30.36,0,NNW,5.8,,,,,330,2013-05-27 09:00:00
5:00 AM,15.8,-9999,N/A,30.36,0.5,WNW,5.8,-,N/A,,Clear,300,2013-05-27 09:00:00
5:18 AM,15.8,-9999,N/A,30.20,1.0,NNW,6.9,-,N/A,,Clear,340,2013-05-27 09:18:00
5:23 AM,15.8,-9999,N/A,30.19,3.0,NNW,5.8,-,N/A,,Clear,340,2013-05-27 09:23:00
5:26 AM,15.8,-9999,N/A,30.19,2.5,NNW,4.6,-,N/A,,Clear,340,2013-05-27 09:26:00
5:31 AM,15.8,-9999,N/A,30.19,1.4,NNW,4.6,-,N/A,,Clear,340,2013-05-27 09:31:00
5:40 AM,15.8,-9999,N/A,30.20,1.0,NNW,5.8,-,N/A,,Clear,330,2013-05-27 09:40:00
5:42 AM,15.8,-9999,N/A,30.20,0.6,North,5.8,-,N/A,,Clear,350,2013-05-27 09:42:00
5:45 AM,15.8,-9999,N/A,30.19,0.4,North,4.6,-,N/A,,Clear,350,2013-05-27 09:45:00
5:59 AM,15.8,-9999,N/A,30.19,0.5,NNW,4.6,-,N/A,,Clear,330,2013-05-27 09:59:00
6:00 AM,15.8,-9999,N/A,30.35,0.6,NW,4.6,-,N/A,,Clear,320,2013-05-27 10:00:00
6:15 AM,15.8,-9999,N/A,30.18,1.1,NNW,4.6,-,N/A,,Clear,340,2013-05-27 10:15:00
6:20 AM,15.8,-9999,N/A,30.18,3.0,NNW,3.5,-,N/A,,Clear,340,2013-05-27 10:20:00
6:24 AM,15.8,-9999,N/A,30.18,1.4,NW,4.6,-,N/A,,Clear,320,2013-05-27 10:24:00
6:25 AM,15.8,-9999,N/A,30.19,0.6,NW,4.6,-,N/A,,Clear,320,2013-05-27 10:25:00
6:27 AM,15.8,-9999,N/A,30.19,0.4,NW,6.9,-,N/A,,Clear,320,2013-05-27 10:27:00
6:31 AM,15.8,-9999,N/A,30.18,0.1,NW,3.5,-,N/A,,Clear,310,2013-05-27 10:31:00
6:56 AM,15.8,-9999,N/A,30.18,0.4,North,4.6,-,N/A,,Clear,350,2013-05-27 10:56:00
7:00 AM,15.8,-9999,N/A,30.34,0.2,North,4.6,-,N/A,,Clear,350,2013-05-27 11:00:00
7:26 AM,15.8,-9999,N/A,30.18,0.5,NNW,4.6,-,N/A,,Clear,340,2013-05-27 11:26:00
7:35 AM,15.8,-9999,N/A,30.18,0.4,NNW,4.6,-,N/A,,Clear,340,2013-05-27 11:35:00
7:55 AM,15.8,-9999,N/A,30.17,0.1,WNW,4.6,-,N/A,,Clear,300,2013-05-27 11:55:00
8:00 AM,16,,,30.33,0,NW,4.6,,,,,310,2013-05-27 12:00:00
8:00 AM,15.8,-9999,N/A,30.33,0.1,WNW,4.6,-,N/A,,Clear,290,2013-05-27 12:00:00
8:35 AM,15.8,-9999,N/A,30.18,0.4,NNW,5.8,-,N/A,,Clear,330,2013-05-27 12:35:00
8:51 AM,15.8,-9999,N/A,30.17,0.1,WNW,3.5,-,N/A,,Clear,300,2013-05-27 12:51:00
8:59 AM,15.8,-9999,N/A,30.17,0.2,WNW,4.6,-,N/A,,Clear,290,2013-05-27 12:59:00
9:00 AM,15.8,-9999,N/A,30.33,0.2,WNW,4.6,-,N/A,,Clear,290,2013-05-27 13:00:00
9:08 AM,15.8,-9999,N/A,30.17,0.1,North,5.8,-,N/A,,Clear,350,2013-05-27 13:08:00
9:44 AM,15.8,-9999,N/A,30.17,0.6,NW,4.6,-,N/A,,Clear,320,2013-05-27 13:44:00
9:50 AM,17.6,-9999,N/A,30.17,0.4,NW,3.5,-,N/A,,Clear,320,2013-05-27 13:50:00
10:00 AM,15.8,-9999,N/A,30.34,0.2,North,4.6,-,N/A,,Clear,360,2013-05-27 14:00:00
10:31 AM,15.8,-9999,N/A,30.16,0.1,NNW,4.6,-,N/A,,Clear,340,2013-05-27 14:31:00
10:49 AM,15.8,-9999,N/A,30.16,0.5,North,5.8,-,N/A,,Clear,350,2013-05-27 14:49:00
10:53 AM,15.8,-9999,N/A,30.16,1.0,NNW,4.6,-,N/A,,Clear,340,2013-05-27 14:53:00
10:59 AM,15.8,-9999,N/A,30.15,2.0,North,6.9,-,N/A,,Clear,350,2013-05-27 14:59:00
11:00 AM,16,,,30.31,2,NNW,5.8,,,,,340,2013-05-27 15:00:00
11:00 AM,15.8,-9999,N/A,30.31,2.0,North,6.9,-,N/A,,Clear,350,2013-05-27 15:00:00
11:07 AM,15.8,-9999,N/A,30.15,0.6,NW,4.6,-,N/A,,Clear,320,2013-05-27 15:07:00
11:10 AM,17.6,-9999,N/A,30.15,0.4,NNW,6.9,-,N/A,,Clear,340,2013-05-27 15:10:00
11:33 AM,17.6,-9999,N/A,30.14,0.6,North,6.9,-,N/A,,Clear,360,2013-05-27 15:33:00
11:38 AM,15.8,-9999,N/A,30.14,0.4,North,6.9,-,N/A,,Clear,360,2013-05-27 15:38:00
12:00 PM,17.6,-9999,N/A,30.29,0.2,NNW,8.1,-,N/A,,Clear,340,2013-05-27 16:00:00
12:18 PM,17.6,-9999,N/A,30.13,0.8,North,8.1,-,N/A,,Clear,360,2013-05-27 16:18:00
12:20 PM,17.6,-9999,N/A,30.13,1.6,North,8.1,-,N/A,,Clear,350,2013-05-27 16:20:00
12:40 PM,17.6,-9999,N/A,30.13,8.0,North,5.8,-,N/A,,Clear,360,2013-05-27 16:40:00
1:00 PM,17.6,-9999,N/A,30.29,9.0,North,4.6,-,N/A,,Clear,350,2013-05-27 17:00:00
2:00 PM,18,,,30.27,6,NNW,5.8,,,,,340,2013-05-27 18:00:00
2:00 PM,17.6,-9999,N/A,30.27,6.0,North,5.8,-,N/A,,Clear,350,2013-05-27 18:00:00
2:27 PM,17.6,-9999,N/A,30.11,9.0,North,4.6,-,N/A,,Clear,350,2013-05-27 18:27:00
2:30 PM,17.6,-9999,N/A,30.11,9.0,North,4.6,-,N/A,,Mostly Cloudy,350,2013-05-27 18:30:00
2:37 PM,19.4,-9999,N/A,30.10,9.0,North,4.6,-,N/A,,Partly Cloudy,360,2013-05-27 18:37:00
2:59 PM,19.4,-9999,N/A,30.10,9.0,NNW,8.1,-,N/A,,Mostly Cloudy,340,2013-05-27 18:59:00
3:00 PM,19.4,-9999,N/A,30.26,9.0,NNW,8.1,-,N/A,,Mostly Cloudy,340,2013-05-27 19:00:00
3:02 PM,19.4,-9999,N/A,30.10,9.0,North,-9999.0,-,N/A,,Mostly Cloudy,0,2013-05-27 19:02:00
3:50 PM,19.4,-9999,N/A,30.10,9.0,NNW,4.6,-,N/A,,Partly Cloudy,340,2013-05-27 19:50:00
4:00 PM,19.4,-9999,N/A,30.25,9.0,NNW,4.6,-,N/A,,Clear,340,2013-05-27 20:00:00
5:00 PM,22,,,30.24,9,Calm,Calm,,,,,,2013-05-27 21:00:00
5:00 PM,21.2,-9999,N/A,30.24,9.0,NW,2.3,-,N/A,,Clear,320,2013-05-27 21:00:00
6:00 PM,19.4,-9999,N/A,30.24,9.0,NNW,3.5,-,N/A,,Clear,330,2013-05-27 22:00:00
7:00 PM,19.4,-9999,N/A,30.23,9.0,NW,5.8,-,N/A,,Clear,320,2013-05-27 23:00:00
8:00 PM,18,,,30.21,9,NW,4.6,,,,,320,2013-05-28 00:00:00
8:00 PM,19.4,-9999,N/A,30.21,9.0,NW,4.6,-,N/A,,Clear,320,2013-05-28 00:00:00
8:58 PM,19.4,-9999,N/A,30.04,2.8,NNW,4.6,-,N/A,,Clear,330,2013-05-28 00:58:00
9:00 PM,17.6,-9999,N/A,30.20,2.1,NNW,4.6,-,N/A,,Clear,330,2013-05-28 01:00:00
9:07 PM,17.6,-9999,N/A,30.04,0.6,NNW,5.8,-,N/A,,Clear,340,2013-05-28 01:07:00
9:21 PM,17.6,-9999,N/A,30.04,1.8,North,3.5,-,N/A,,Clear,350,2013-05-28 01:21:00
9:33 PM,17.6,-9999,N/A,30.03,9.0,NW,3.5,-,N/A,,Clear,320,2013-05-28 01:33:00
10:00 PM,17.6,-9999,N/A,30.18,9.0,North,3.5,-,N/A,,Clear,350,2013-05-28 02:00:00
11:00 PM,18,,,30.18,9,NW,2.3,,,,,320,2013-05-28 03:00:00
11:00 PM,19.4,-9999,N/A,30.18,9.0,NNW,3.5,-,N/A,,Clear,330,2013-05-28 03:00:00